This is the latest recevied weather packets stored in our database for station/object K5FEP. If no packets are shown the sender has not sent any weather packets the latest 10 day(s).
| Time | Temp. | Humidity | Pressure | Rain* | Wind** | Luminosity | Snow |
|---|---|---|---|---|---|---|---|
| 1777635978 | 5.56° C | 93% | 1015.6 hPa | 0 mm | - | 62 W/m² | - |
| 1777635674 | 5° C | 94% | 1015.9 hPa | 0 mm | - | 68 W/m² | - |
| 1777635371 | 5° C | 93% | 1015.7 hPa | 0 mm | - | 57 W/m² | - |
| 1777635068 | 5° C | 94% | 1015.8 hPa | 0 mm | - | 44 W/m² | - |
| 1777634763 | 4.44° C | 94% | 1015.2 hPa | 0 mm | - | 55 W/m² | - |
| 1777634461 | 4.44° C | 94% | 1015.5 hPa | 0 mm | - | 43 W/m² | - |
| 1777634157 | 4.44° C | 94% | 1015.5 hPa | 0 mm | - | 34 W/m² | - |
| 1777633854 | 4.44° C | 94% | 1015.4 hPa | 0 mm | - | 34 W/m² | - |
| 1777633552 | 4.44° C | 94% | 1015.4 hPa | 0 mm | - | 32 W/m² | - |
| 1777633250 | 4.44° C | 94% | 1015.4 hPa | 0 mm | - | 24 W/m² | - |
| 1777632947 | 4.44° C | 94% | 1015.4 hPa | 0 mm | - | 21 W/m² | - |
| 1777632643 | 4.44° C | 94% | 1015.1 hPa | 0 mm | - | 22 W/m² | - |
| 1777632339 | 3.89° C | 94% | 1015.2 hPa | 0 mm | - | 19 W/m² | - |
| 1777632037 | 3.89° C | 94% | 1015.2 hPa | 0 mm | - | 12 W/m² | - |
| 1777631735 | 3.89° C | 94% | 1015.2 hPa | 0 mm | - | 9 W/m² | - |
| 1777631432 | 3.89° C | 94% | 1015.3 hPa | 0 mm | - | 7 W/m² | - |
| 1777631129 | 4.44° C | 94% | 1015 hPa | 0 mm | - | 4 W/m² | - |
| 1777630826 | 3.89° C | 94% | 1015.1 hPa | 0 mm | - | 2 W/m² | - |
| 1777630522 | 4.44° C | 93% | 1014.8 hPa | 0 mm | - | 1 W/m² | - |
| 1777630219 | 4.44° C | 93% | 1014.8 hPa | 0 mm | - | 0 W/m² | - |
| 1777629917 | 4.44° C | 93% | 1014.9 hPa | 0 mm | - | 0 W/m² | - |
| 1777629614 | 4.44° C | 93% | 1015 hPa | 0 mm | - | 0 W/m² | - |
| 1777629310 | 4.44° C | 92% | 1014.9 hPa | 0 mm | - | 0 W/m² | - |
| 1777629006 | 4.44° C | 92% | 1014.7 hPa | 0 mm | - | 0 W/m² | - |
| 1777628703 | 4.44° C | 92% | 1015 hPa | 0 mm | - | 0 W/m² | - |
* Rain latest hour (hover to see other rain measurements)
** Current wind speed in m/s (hover to see current wind gust speed)